K7UV Weather Reports


Display with metric or nautical units.
time (UTC)temp
F
wind
direction
speed
MPH
gust
MPH
rain 1hr
in
rain 24hr
in
rain mn
in
humidity
%
barometer
mb
20260505065858 59 165 3.0 6.0 0.00 0.00 0.00 53 -103.8
20260505065340 59 191 1.0 9.0 0.00 0.00 0.00 52 -103.8
20260505064847 59 153 1.0 9.0 0.00 0.00 0.00 51 -103.8
20260505064349 59 168 3.0 8.0 0.00 0.00 0.00 51 -103.8
20260505063828 60 148 2.0 7.0 0.00 0.00 0.00 49 -103.8
20260505063330 60 158 2.0 11.0 0.00 0.00 0.00 48 -103.8
20260505062832 60 170 3.0 11.0 0.00 0.00 0.00 47 -103.8
20260505062315 60 159 3.0 5.0 0.00 0.00 0.00 47 -103.8
20260505061815 60 178 2.0 4.0 0.00 0.00 0.00 47 -103.8
20260505061318 60 133 1.0 4.0 0.00 0.00 0.00 48 -103.8
20260505060839 60 160 1.0 6.0 0.00 0.00 0.00 48 -103.8
20260505060342 60 131 2.0 5.0 0.00 0.00 0.00 50 -103.8
20260505055831 60 156 3.0 6.0 0.00 0.00 0.00 50 -103.8
20260505055333 60 131 1.0 6.0 0.00 0.00 0.00 50 -103.8
20260505054835 61 131 2.0 8.0 0.00 0.00 0.00 49 -103.8
20260505054339 61 154 4.0 7.0 0.00 0.00 0.00 47 -103.8
20260505053817 61 180 3.0 7.0 0.00 0.00 0.00 45 -103.8
20260505053337 61 158 1.0 5.0 0.00 0.00 0.00 44 -103.8
20260505052815 61 162 2.0 6.0 0.00 0.00 0.00 42 -103.8
20260505052315 61 118 3.0 6.0 0.00 0.00 0.00 41 -103.8
20260505051815 61 197 2.0 7.0 0.00 0.00 0.00 42 -103.8
20260505051317 61 138 2.0 7.0 0.00 0.00 0.00 42 -103.8
20260505050817 60 200 2.0 10.0 0.00 0.00 0.00 43 -103.9
20260505050318 59 189 2.0 6.0 0.00 0.00 0.00 44 -103.9
20260505041341 60 81 0.0 0.0 0.00 0.00 0.00 45 -103.9
20260505040821 60 81 0.0 1.0 0.00 0.00 0.00 44 -103.9
20260505040324 60 81 0.0 1.0 0.00 0.00 0.00 44 -103.9
20260505035821 60 81 0.0 2.0 0.00 0.00 0.00 44 -103.9
20260505035323 60 82 0.0 2.0 0.00 0.00 0.00 44 -103.9
20260505034844 60 145 0.0 1.0 0.00 0.00 0.00 44 -103.9
20260505034326 60 145 0.0 2.0 0.00 0.00 0.00 45 -103.9
20260505033827 60 145 0.0 2.0 0.00 0.00 0.00 45 -104.0
20260505033328 60 146 0.0 0.0 0.00 0.00 0.00 45 -104.0
20260505032848 60 146 0.0 1.0 0.00 0.00 0.00 45 -104.0
20260505032327 60 146 1.0 1.0 0.00 0.00 0.00 45 -104.0
20260505031826 60 145 0.0 2.0 0.00 0.00 0.00 45 -104.0
20260505031327 60 145 0.0 1.0 0.00 0.00 0.00 45 -104.0
20260505030828 60 145 0.0 0.0 0.00 0.00 0.00 45 -104.0
20260505030331 60 145 0.0 1.0 0.00 0.00 0.00 44 -104.0
20260505025318 61 145 0.0 1.0 0.00 0.00 0.00 45 -104.0
20260505024818 61 145 0.0 1.0 0.00 0.00 0.00 45 -104.0
20260505024320 61 145 0.0 0.0 0.00 0.00 0.00 45 -104.0
20260505023820 62 145 0.0 0.0 0.00 0.00 0.00 44 -104.0
20260505023320 62 145 0.0 0.0 0.00 0.00 0.00 44 -104.0
20260505022820 63 145 0.0 0.0 0.00 0.00 0.00 44 -104.0
20260505022323 63 145 0.0 0.0 0.00 0.00 0.00 42 -104.0
20260505021823 64 145 0.0 0.0 0.00 0.00 0.00 41 -104.0
20260505021327 64 145 0.0 1.0 0.00 0.00 0.00 41 -104.0
20260505020828 65 145 0.0 2.0 0.00 0.00 0.00 40 -104.0
20260505020330 65 149 0.0 2.0 0.00 0.00 0.00 40 -104.0
20260505015827 65 208 0.0 1.0 0.00 0.00 0.00 39 -104.0
20260505015331 66 196 0.0 3.0 0.00 0.00 0.00 39 -104.0
20260505014831 66 161 1.0 3.0 0.00 0.00 0.00 38 -104.0
20260505014333 66 173 1.0 3.0 0.00 0.00 0.00 37 -104.0
20260505013834 67 165 1.0 5.0 0.00 0.00 0.00 37 -104.0
20260505013355 67 154 1.0 5.0 0.00 0.00 0.00 35 -104.0
20260505012852 68 162 1.0 3.0 0.00 0.00 0.00 36 -104.0
20260505012314 68 131 1.0 3.0 0.00 0.00 0.00 35 -104.0
20260505011816 68 149 2.0 3.0 0.00 0.00 0.00 34 -104.0
20260505011318 68 188 1.0 4.0 0.00 0.00 0.00 34 -104.0
20260505010818 69 160 2.0 5.0 0.00 0.00 0.00 33 -104.0
20260505010340 69 170 2.0 5.0 0.00 0.00 0.00 33 -104.0
20260505005838 69 164 0.0 3.0 0.00 0.00 0.00 33 -104.0
20260505005319 69 167 1.0 4.0 0.00 0.00 0.00 33 -104.0
20260505004819 70 172 2.0 4.0 0.00 0.00 0.00 31 -104.0
20260505004320 70 163 2.0 4.0 0.00 0.00 0.00 30 -104.0
20260505003819 70 216 1.0 6.0 0.00 0.00 0.00 31 -104.0
20260505003319 70 181 2.0 6.0 0.00 0.00 0.00 31 -104.0
20260505002817 70 165 1.0 4.0 0.00 0.00 0.00 32 -104.0
20260505002318 70 169 2.0 6.0 0.00 0.00 0.00 32 -104.0
20260505001816 71 138 1.0 6.0 0.00 0.00 0.00 31 -104.0
20260505001319 71 169 2.0 5.0 0.00 0.00 0.00 31 -104.0
20260505000819 71 157 1.0 7.0 0.00 0.00 0.00 31 -104.0
20260505000320 71 164 3.0 8.0 0.00 0.00 0.00 30 -104.0
20260504235817 72 172 4.0 8.0 0.00 0.00 0.00 31 -104.0
20260504235338 72 168 2.0 6.0 0.00 0.00 0.00 31 -104.0
20260504234818 73 150 3.0 10.0 0.00 0.00 0.00 31 -104.0
20260504234340 73 60 4.0 10.0 0.00 0.00 0.00 31 -104.0
20260504233820 73 192 2.0 8.0 0.00 0.00 0.00 26 -104.0
20260504233342 73 159 1.0 7.0 0.00 0.00 0.00 22 -104.0
20260504232821 73 160 2.0 5.0 0.00 0.00 0.00 22 -104.0
20260504232321 73 183 1.0 4.0 0.00 0.00 0.00 22 -104.0
20260504231837 73 156 2.0 4.0 0.00 0.00 0.00 19 -104.0
20260504231318 73 168 2.0 6.0 0.00 0.00 0.00 19 -104.0
20260504230817 74 202 2.0 6.0 0.00 0.00 0.00 20 -104.0
20260504230318 74 312 0.0 3.0 0.00 0.00 0.00 22 -104.0
20260504225814 74 160 1.0 3.0 0.00 0.00 0.00 21 -104.0
20260504225317 74 270 1.0 3.0 0.00 0.00 0.00 25 -104.0
20260504224817 74 314 1.0 6.0 0.00 0.00 0.00 27 -104.0
20260504224347 74 155 3.0 5.0 0.00 0.00 0.00 22 -104.0
20260504223827 74 155 0.0 4.0 0.00 0.00 0.00 27 -104.0
20260504223330 74 140 1.0 4.0 0.00 0.00 0.00 25 -104.0
20260504222831 74 162 2.0 4.0 0.00 0.00 0.00 24 -104.0
20260504222315 74 129 1.0 4.0 0.00 0.00 0.00 26 -104.0
20260504221834 74 161 2.0 4.0 0.00 0.00 0.00 24 -104.0
20260504221316 75 159 1.0 6.0 0.00 0.00 0.00 28 -104.0
20260504220817 75 146 2.0 5.0 0.00 0.00 0.00 24 -104.0
20260504220340 75 196 1.0 5.0 0.00 0.00 0.00 24 -104.0
20260504215817 75 146 2.0 5.0 0.00 0.00 0.00 24 -104.0
20260504215319 75 142 1.0 4.0 0.00 0.00 0.00 26 -104.0
20260504214839 75 157 2.0 5.0 0.00 0.00 0.00 23 -103.9
20260504214317 75 171 3.0 5.0 0.00 0.00 0.00 23 -103.9
20260504213835 75 340 1.0 3.0 0.00 0.00 0.00 25 -103.9
20260504213337 76 158 1.0 2.0 0.00 0.00 0.00 26 -103.9
20260504212815 76 199 1.0 6.0 0.00 0.00 0.00 26 -103.9
20260504212315 75 163 2.0 6.0 0.00 0.00 0.00 25 -103.9
20260504211815 76 303 1.0 2.0 0.00 0.00 0.00 27 -103.9
20260504211317 75 319 0.0 3.0 0.00 0.00 0.00 28 -103.9
20260504210816 75 13 2.0 4.0 0.00 0.00 0.00 23 -103.9
20260504210337 74 207 2.0 5.0 0.00 0.00 0.00 24 -103.9
20260504205851 75 323 2.0 5.0 0.00 0.00 0.00 24 -103.9
20260504205331 75 112 0.0 5.0 0.00 0.00 0.00 28 -103.9
20260504204830 75 163 2.0 5.0 0.00 0.00 0.00 23 -103.9
20260504204351 75 271 1.0 4.0 0.00 0.00 0.00 26 -103.9
20260504203830 75 158 1.0 4.0 0.00 0.00 0.00 26 -103.9
20260504203352 74 157 1.0 3.0 0.00 0.00 0.00 25 -103.9
20260504202832 74 328 1.0 6.0 0.00 0.00 0.00 24 -103.9
20260504202333 74 164 3.0 6.0 0.00 0.00 0.00 23 -103.9
20260504201814 74 304 2.0 4.0 0.00 0.00 0.00 26 -103.9
20260504201317 74 162 2.0 4.0 0.00 0.00 0.00 24 -103.8
20260504200817 74 148 1.0 5.0 0.00 0.00 0.00 26 -103.8
20260504200338 74 140 3.0 5.0 0.00 0.00 0.00 25 -103.8
20260504195814 74 293 2.0 4.0 0.00 0.00 0.00 27 -103.8
20260504195314 74 122 1.0 4.0 0.00 0.00 0.00 26 -103.8
20260504194815 74 148 2.0 4.0 0.00 0.00 0.00 26 -103.8
20260504194318 75 305 1.0 3.0 0.00 0.00 0.00 27 -103.8
20260504193819 74 136 1.0 3.0 0.00 0.00 0.00 29 -103.8
20260504193321 74 44 0.0 4.0 0.00 0.00 0.00 28 -103.8
20260504192822 73 155 1.0 4.0 0.00 0.00 0.00 30 -103.8
20260504192322 73 289 0.0 4.0 0.00 0.00 0.00 30 -103.8
20260504191818 73 158 2.0 4.0 0.00 0.00 0.00 25 -103.8
20260504191319 73 153 1.0 4.0 0.00 0.00 0.00 26 -103.8
20260504190818 74 146 3.0 4.0 0.00 0.00 0.00 24 -103.8
20260504190321 73 200 1.0 2.0 0.00 0.00 0.00 29 -103.8
20260504185820 73 6 0.0 3.0 0.00 0.00 0.00 29 -103.7
20260504185322 73 151 1.0 4.0 0.00 0.00 0.00 28 -103.7
20260504184819 73 123 1.0 4.0 0.00 0.00 0.00 30 -103.7
20260504184341 72 136 0.0 10.0 0.00 0.00 0.00 32 -103.7
20260504183820 72 207 1.0 3.0 0.00 0.00 0.00 28 -103.7
20260504183341 72 290 1.0 4.0 0.00 0.00 0.00 30 -103.7
20260504182821 72 165 2.0 4.0 0.00 0.00 0.00 28 -103.7
20260504182322 71 148 2.0 4.0 0.00 0.00 0.00 28 -103.7
20260504181838 70 311 1.0 4.0 0.00 0.00 0.00 29 -103.7
20260504181317 71 321 1.0 4.0 0.00 0.00 0.00 30 -103.7
20260504180818 70 155 1.0 3.0 0.00 0.00 0.00 31 -103.7
20260504180321 70 326 2.0 3.0 0.00 0.00 0.00 31 -103.7
20260504175840 70 125 1.0 4.0 0.00 0.00 0.00 31 -103.7
20260504175322 70 297 0.0 4.0 0.00 0.00 0.00 30 -103.7
20260504174823 70 116 1.0 4.0 0.00 0.00 0.00 33 -103.7
20260504174323 70 294 0.0 2.0 0.00 0.00 0.00 32 -103.7
20260504173823 70 288 1.0 4.0 0.00 0.00 0.00 32 -103.7
20260504173323 70 167 1.0 4.0 0.00 0.00 0.00 33 -103.7
20260504172823 70 126 0.0 1.0 0.00 0.00 0.00 36 -103.7
20260504172344 69 304 0.0 3.0 0.00 0.00 0.00 38 -103.7
20260504171824 69 145 0.0 3.0 0.00 0.00 0.00 34 -103.7
20260504171325 68 112 1.0 5.0 0.00 0.00 0.00 35 -103.7
20260504170825 68 158 2.0 3.0 0.00 0.00 0.00 34 -103.7
20260504170327 67 323 1.0 3.0 0.00 0.00 0.00 38 -103.7
20260504160335 64 345 0.0 2.0 0.00 0.00 0.00 41 -103.6
20260504150838 59 335 1.0 3.0 0.00 0.00 0.00 48 -103.6
20260504150346 59 5 0.0 2.0 0.00 0.00 0.00 47 -103.6
20260504141314 58 303 1.0 2.0 0.00 0.00 0.00 43 -103.6
20260504140822 59 302 1.0 2.0 0.00 0.00 0.00 41 -103.6
20260504140324 59 53 1.0 2.0 0.00 0.00 0.00 41 -103.6
20260504130822 50 124 0.0 1.0 0.00 0.00 0.00 52 -103.6
20260504130325 50 124 0.0 0.0 0.00 0.00 0.00 51 -103.6
20260504110334 50 335 0.0 3.0 0.00 0.00 0.00 55 -103.6
20260504100313 53 153 4.0 6.0 0.00 0.00 0.00 34 -103.7
20260504081824 58 97 5.0 9.0 0.00 0.00 0.00 27 -103.7
20260504081332 58 141 5.0 8.0 0.00 0.00 0.00 27 -103.7
20260504080814 58 149 4.0 11.0 0.00 0.00 0.00 26 -103.7
20260504080345 57 133 5.0 11.0 0.00 0.00 0.00 28 -103.7
20260504070333 57 73 4.0 9.0 0.00 0.00 0.00 29 -103.7